Date String (YYYY-MM-DD hh:mm:ss) UTC,Instrument flags,absolute air pressure of the measurement (hPa),sample flow rate (lpm),inlet stack bypass flow (lpm),air temperature of the measurement (°C),ambient temperature measured by the external sensor (°C),aerosol sample conditioner tube jacket temperature (°C),OPC LED temperature (°C),internal box temperature (°C),relative humidity of the measurement (%),span deviation,mass concentration of particles derived from Lorenz-Mie calculation of OPC scattering (μg/m³),mass concentration of particles derived from Lorenz-Mie calculation of OPC scattering (μg/m³),mass concentration of particles derived from Lorenz-Mie calculation of OPC scattering (μg/m³)
DateTimeUTC,F1_M11,P_M11,Q1_M11,Q2_M11,T1_M11,T2_M11,T3_M11,T4_M11,T5_M11,U1_M11,ZSPAN_M11,X0_M11,X2_M11,X1_M11
2023-07-18 12:00:00,SystemResetWarning,0832.2,5.00,000.00,029.5,028.4,000.0,037.9,031.2,15.2,0000.0,0010.14,0004.99,0004.23
2023-07-18 12:01:00,SystemResetWarning,0832.2,4.98,000.00,029.5,028.0,000.0,037.8,031.2,15.2,0000.0,0009.47,0004.97,0004.24
2023-07-18 12:02:00,SystemResetWarning,0832.2,5.00,000.00,029.5,026.1,000.0,037.7,030.9,15.1,0000.0,0009.25,0004.92,0004.24
2023-07-18 12:03:00,SystemResetWarning,0832.2,5.02,000.00,029.4,025.6,000.0,037.6,030.8,14.7,0000.0,0009.23,0004.89,0004.24
2023-07-18 12:04:00,SystemResetWarning,0832.3,4.99,000.00,029.3,025.7,000.0,037.7,030.6,14.8,0000.0,0009.74,0004.87,0004.23
2023-07-18 12:05:00,SystemResetWarning,0832.3,5.01,000.00,029.3,026.1,000.0,037.7,030.6,14.7,0000.0,0009.99,0004.87,0004.23
2023-07-18 12:06:00,SystemResetWarning,0832.3,5.00,000.00,029.3,026.5,000.0,037.7,030.7,14.7,0000.0,0009.96,0004.86,0004.22
2023-07-18 12:07:00,SystemResetWarning,0832.3,5.00,000.00,029.3,026.8,000.0,037.7,030.7,14.6,0000.0,0009.91,0004.82,0004.23
2023-07-18 12:08:00,SystemResetWarning,0832.3,5.00,000.00,029.3,027.1,000.0,037.8,030.8,14.6,0000.0,0009.74,0004.84,0004.22
2023-07-18 12:09:00,SystemResetWarning,0832.3,4.99,000.00,029.3,027.4,000.0,037.8,030.8,14.7,0000.0,0009.49,0004.81,0004.20
2023-07-18 12:10:00,SystemResetWarning,0832.4,5.00,000.00,029.3,027.6,000.0,037.8,030.9,14.6,0000.0,0009.60,0004.81,0004.20
2023-07-18 12:11:00,SystemResetWarning,0832.3,5.00,000.00,029.3,027.8,000.0,037.8,030.9,14.6,0000.0,0009.68,0004.80,0004.20
2023-07-18 12:12:00,SystemResetWarning,0832.3,5.01,000.00,029.4,027.9,000.0,037.8,031.0,14.8,0000.0,0009.87,0004.82,0004.20
2023-07-18 12:13:00,SystemResetWarning,0832.3,5.00,000.00,029.4,028.1,000.0,037.8,031.0,14.6,0000.0,0009.93,0004.84,0004.21
2023-07-18 12:14:00,SystemResetWarning,0832.3,5.00,000.00,029.4,028.2,000.0,037.8,031.1,14.5,0000.0,0010.14,0004.85,0004.22
2023-07-18 12:15:00,SystemResetWarning,0832.3,4.99,000.00,029.5,028.3,000.0,037.9,031.1,14.6,0000.0,0009.65,0004.85,0004.23
2023-07-18 12:16:00,SystemResetWarning,0832.3,5.00,000.00,029.5,028.3,000.0,037.9,031.2,14.7,0000.0,0009.52,0004.86,0004.23
2023-07-18 12:17:00,SystemResetWarning,0832.3,5.00,000.00,029.5,026.9,000.0,037.8,031.0,14.7,0000.0,0010.25,0004.86,0004.24
2023-07-18 12:18:00,SystemResetWarning,0832.3,5.00,000.00,029.4,025.7,000.0,037.7,030.8,15.0,0000.0,0010.35,0004.84,0004.25
2023-07-18 12:19:00,SystemResetWarning,0832.2,5.01,000.00,029.4,025.7,000.0,037.6,030.7,15.4,0000.0,0010.39,0004.85,0004.27
2023-07-18 12:20:00,SystemResetWarning,0832.3,5.01,000.00,029.3,026.0,000.0,037.7,030.6,15.2,0000.0,0010.80,0004.88,0004.29
2023-07-18 12:21:00,SystemResetWarning,0832.3,4.99,000.00,029.3,026.4,000.0,037.7,030.7,14.8,0000.0,0010.72,0004.84,0004.27
2023-07-18 12:22:00,SystemResetWarning,0832.3,5.00,000.00,029.3,026.8,000.0,037.7,030.7,14.9,0000.0,0010.75,0004.87,0004.28
2023-07-18 12:23:00,SystemResetWarning,0832.3,5.00,000.00,029.3,027.1,000.0,037.7,030.8,15.2,0000.0,0010.78,0004.93,0004.28
2023-07-18 12:24:00,SystemResetWarning,0832.3,5.00,000.00,029.3,027.3,000.0,037.8,030.9,15.2,0000.0,0010.93,0004.94,0004.28
2023-07-18 12:25:00,SystemResetWarning,0832.3,5.00,000.00,029.3,027.6,000.0,037.8,030.9,15.0,0000.0,0011.96,0004.94,0004.28
2023-07-18 12:26:00,SystemResetWarning,0832.3,4.99,000.00,029.3,027.8,000.0,037.8,031.0,15.0,0000.0,0012.81,0004.95,0004.27
2023-07-18 12:27:00,SystemResetWarning,0832.3,5.00,000.00,029.4,027.9,000.0,037.8,031.0,15.0,0000.0,0012.72,0004.94,0004.27
2023-07-18 12:28:00,SystemResetWarning,0832.3,5.00,000.00,029.4,028.1,000.0,037.8,031.0,15.3,0000.0,0011.80,0004.89,0004.26
2023-07-18 12:29:00,SystemResetWarning,0832.3,5.00,000.00,029.4,028.2,000.0,037.8,031.1,15.2,0000.0,0011.32,0004.87,0004.25
2023-07-18 12:30:00,SystemResetWarning,0832.3,5.00,000.00,029.5,028.3,000.0,037.9,031.1,15.3,0000.0,0011.23,0004.82,0004.23
2023-07-18 12:31:00,SystemResetWarning,0832.3,5.00,000.00,029.5,028.4,000.0,037.9,031.2,15.1,0000.0,0010.97,0004.79,0004.23
2023-07-18 12:32:00,SystemResetWarning,0832.3,5.00,000.00,029.5,028.0,000.0,037.9,031.2,15.5,0000.0,0010.93,0004.79,0004.23
2023-07-18 12:33:00,SystemResetWarning,0832.3,4.99,000.00,029.5,026.3,000.0,037.8,031.0,15.3,0000.0,0010.75,0004.73,0004.22
2023-07-18 12:34:00,SystemResetWarning,0832.3,5.01,000.00,029.5,025.9,000.0,037.7,030.9,15.2,0000.0,0010.92,0004.66,0004.22
2023-07-18 12:35:00,SystemResetWarning,0832.3,5.01,000.00,029.4,026.1,000.0,037.7,030.7,16.0,0000.0,0010.95,0004.62,0004.22
2023-07-18 12:36:00,SystemResetWarning,0832.3,4.99,000.00,029.3,026.4,000.0,037.8,030.7,16.0,0000.0,0010.07,0004.65,0004.22
2023-07-18 12:37:00,SystemResetWarning,0832.3,4.99,000.00,029.3,026.8,000.0,037.8,030.8,15.4,0000.0,0009.29,0004.68,0004.23
2023-07-18 12:38:00,SystemResetWarning,0832.3,5.00,000.00,029.3,027.1,000.0,037.8,030.9,15.3,0000.0,0009.35,0004.70,0004.23
2023-07-18 12:39:00,SystemResetWarning,0832.2,5.01,000.00,029.3,027.3,000.0,037.8,030.9,15.2,0000.0,0009.41,0004.74,0004.24
2023-07-18 12:40:00,SystemResetWarning,0832.3,5.00,000.00,029.4,027.6,000.0,037.8,031.0,15.2,0000.0,0009.50,0004.76,0004.24
2023-07-18 12:41:00,SystemResetWarning,0832.3,4.99,000.00,029.4,027.8,000.0,037.9,031.0,15.2,0000.0,0009.48,0004.78,0004.25
2023-07-18 12:42:00,SystemResetWarning,0832.3,5.01,000.00,029.4,027.9,000.0,037.9,031.1,15.2,0000.0,0009.19,0004.77,0004.25
2023-07-18 12:43:00,SystemResetWarning,0832.3,5.01,000.00,029.5,028.1,000.0,037.9,031.1,15.1,0000.0,0009.10,0004.76,0004.25
2023-07-18 12:44:00,SystemResetWarning,0832.3,5.00,000.00,029.5,028.2,000.0,037.9,031.1,15.1,0000.0,0009.16,0004.78,0004.26
2023-07-18 12:45:00,SystemResetWarning,0832.4,4.99,000.00,029.5,028.3,000.0,037.9,031.2,15.1,0000.0,0008.79,0004.78,0004.26
2023-07-18 12:46:00,SystemResetWarning,0832.3,5.00,000.00,029.6,028.3,000.0,037.9,031.2,15.2,0000.0,0008.60,0004.79,0004.27
2023-07-18 12:47:00,SystemResetWarning,0832.3,4.99,000.00,029.6,026.9,000.0,037.8,031.1,15.5,0000.0,0008.38,0004.77,0004.26
2023-07-18 12:48:00,SystemResetWarning,0832.3,5.01,000.00,029.5,025.1,000.0,037.7,030.8,15.6,0000.0,0008.69,0004.74,0004.26
2023-07-18 12:49:00,SystemResetWarning,0832.3,5.01,000.00,029.4,025.1,000.0,037.6,030.7,15.6,0000.0,0008.73,0004.73,0004.25
2023-07-18 12:50:00,SystemResetWarning,0832.3,4.99,000.00,029.3,025.4,000.0,037.7,030.5,15.5,0000.0,0008.72,0004.71,0004.24
2023-07-18 12:51:00,SystemResetWarning,0832.3,4.99,000.00,029.2,025.8,000.0,037.7,030.5,16.0,0000.0,0008.62,0004.70,0004.22
2023-07-18 12:52:00,SystemResetWarning,0832.4,5.00,000.00,029.2,026.3,000.0,037.7,030.6,15.8,0000.0,0008.45,0004.67,0004.20
2023-07-18 12:53:00,SystemResetWarning,0832.4,5.01,000.00,029.2,026.7,000.0,037.7,030.7,15.7,0000.0,0008.55,0004.69,0004.19
2023-07-18 12:54:00,SystemResetWarning,0832.5,5.01,000.00,029.2,027.0,000.0,037.7,030.8,15.8,0000.0,0008.67,0004.73,0004.19
2023-07-18 12:55:00,SystemResetWarning,0832.5,5.01,000.00,029.3,027.3,000.0,037.7,030.8,15.9,0000.0,0008.74,0004.74,0004.18
2023-07-18 12:56:00,SystemResetWarning,0832.5,5.00,000.00,029.3,027.5,000.0,037.8,030.9,15.8,0000.0,0008.89,0004.75,0004.17
2023-07-18 12:57:00,SystemResetWarning,0832.5,4.99,000.00,029.3,027.7,000.0,037.8,030.9,15.8,0000.0,0009.02,0004.76,0004.16
2023-07-18 12:58:00,SystemResetWarning,0832.5,4.99,000.00,029.3,027.9,000.0,037.8,031.0,16.0,0000.0,0008.88,0004.72,0004.15
2023-07-18 12:59:00,SystemResetWarning,0832.6,4.99,000.00,029.4,028.0,000.0,037.8,031.0,16.6,0000.0,0008.35,0004.70,0004.15
